Theta_e
312 311 311 314 316 314 319 321 324 323 321 321 322 321 323 323 323 323 325 325 326 326 327 326 327 327 326 332 341 357 357 356 353 354 352 352 351 347 348 343 343 343 342 342
311 311 311 310 310 312 315 322 320 319 320 323 321 322 323 323 323 324 325 324 325 326 328 330 328 328 328 333 349 355 359 361 355 355 351 354 351 350 348 347 348 343 343 342
310 311 310 310 310 310 311 312 313 316 316 318 320 320 322 321 321 321 323 324 325 327 328 329 331 332 332 331 328 350 363 360 357 356 354 354 352 352 349 349 350 349 346 345
310 310 310 310 310 310 311 310 310 311 314 322 319 324 322 323 322 322 322 323 323 324 326 327 329 332 331 331 331 349 357 362 361 357 357 354 354 353 351 350 351 352 352 351
311 311 312 311 310 310 309 309 308 309 311 317 320 322 322 322 323 322 322 322 323 323 323 324 325 327 329 330 328 331 358 361 362 360 357 354 355 352 353 351 353 353 353 351
311 311 312 312 312 311 311 311 312 312 311 317 316 318 319 321 321 320 322 323 323 324 323 324 325 324 325 329 329 329 359 359 362 361 359 356 355 354 354 353 353 353 353 353
312 312 313 311 312 311 311 314 319 317 316 316 313 315 320 320 321 320 322 322 323 323 323 325 325 324 325 325 330 330 347 357 361 361 359 358 356 355 353 354 352 353 353 353
314 314 313 313 312 311 315 314 320 321 318 314 313 318 318 320 321 322 322 322 322 323 324 324 325 325 325 324 328 331 332 357 361 360 360 358 357 355 357 354 351 353 354 354
314 314 313 313 313 313 313 314 315 320 319 322 318 317 318 319 320 320 322 321 322 323 325 325 325 325 325 324 326 330 330 356 360 362 361 359 357 358 355 354 352 351 353 353
312 316 313 313 313 315 315 315 319 319 317 319 314 315 324 326 323 322 321 321 323 323 322 323 324 326 325 324 325 330 331 343 359 362 361 360 357 358 356 355 351 351 352 352
313 316 315 313 315 317 319 317 318 318 320 323 325 324 322 325 324 328 328 326 324 324 325 325 325 327 324 323 323 330 331 331 356 359 361 360 359 357 355 354 351 351 351 352
313 315 315 314 313 316 318 319 319 323 318 318 321 322 323 323 323 319 327 323 324 324 324 323 324 325 327 326 325 326 331 330 348 356 360 360 360 356 354 352 351 346 351 352
315 315 317 315 319 318 316 316 318 322 322 322 324 320 322 321 321 323 324 323 321 323 322 322 323 325 325 326 326 326 328 330 328 350 357 360 356 354 350 347 344 342 338 346
313 315 317 317 316 316 319 317 317 319 324 323 321 320 321 323 320 320 323 322 322 321 323 321 322 322 322 324 326 327 328 328 329 338 352 357 353 351 349 346 339 339 333 330
315 318 315 315 315 317 319 319 318 321 319 322 323 319 317 317 318 319 321 322 323 323 323 324 325 327 328 329 329 329 328 329 327 329 343 355 350 348 346 341 338 337 334 330
314 316 314 316 316 316 318 320 320 317 316 316 317 316 314 313 313 315 317 318 321 322 322 325 324 324 326 329 330 330 334 334 330 329 334 350 347 343 341 339 335 331 330 331
315 316 318 319 315 318 326 315 315 315 313 313 315 314 312 312 311 311 314 315 318 318 320 320 322 323 325 327 328 330 331 333 334 333 332 352 352 351 347 341 338 337 336 341
318 319 316 320 319 326 316 312 312 313 312 310 311 310 308 307 307 308 307 309 311 312 313 314 316 318 318 321 323 327 330 332 335 333 335 349 351 353 351 348 346 346 343 341
318 316 317 322 319 318 316 313 311 311 313 310 309 308 306 306 307 308 303 305 308 309 310 312 310 311 314 316 319 323 327 330 336 343 347 348 348 353 349 345 341 339 336 332
318 316 316 319 320 326 313 310 310 311 316 309 307 306 305 305 307 305 302 303 304 307 308 309 309 310 312 316 319 324 328 330 338 343 347 346 345 345 340 337 335 332 331 326
318 317 319 319 320 321 311 308 309 313 313 307 307 306 304 304 301 302 301 302 304 306 306 306 307 309 311 314 319 324 330 336 332 334 335 337 337 333 332 332 331 328 325 321
318 318 317 316 319 319 308 308 309 308 307 307 305 304 304 303 303 302 303 302 304 305 305 304 305 308 311 315 325 324 324 326 327 327 327 328 329 329 329 328 326 323 320 317
318 316 317 315 316 312 307 306 305 307 306 305 304 304 304 304 303 304 303 302 303 303 303 303 303 305 309 311 315 316 317 320 320 321 321 322 322 324 324 323 320 317 316 315
315 314 316 315 314 311 306 304 304 305 304 303 303 305 306 305 303 304 304 303 303 302 303 302 302 303 304 309 310 312 314 316 316 316 317 317 317 317 317 318 317 317 316 315
316 314 314 315 312 308 307 304 304 304 303 304 304 305 305 305 305 305 305 304 304 302 302 302 301 301 302 303 306 309 310 312 313 313 312 311 307 306 306 307 314 315 315 314
316 315 314 315 308 306 306 303 303 304 303 303 303 302 303 305 307 306 306 304 303 303 301 301 301 301 301 302 303 304 307 307 307 308 307 306 305 304 303 301 301 308 311 310
Wind_Speed
19 16 17 21 22 24 16 23 28 27 30 29 28 27 27 22 22 17 22 14 15 14 18 27 29 30 33 32 38 34 29 40 41 34 33 27 25 29 25 28 29 33 32 29
18 18 21 24 23 19 11 13 19 26 28 25 25 28 23 21 16 22 23 14 12 16 13 9 22 24 23 21 29 31 37 33 41 37 39 31 29 30 27 29 28 35 33 34
19 23 23 20 21 20 21 18 19 20 25 26 25 23 25 25 21 19 17 14 12 16 14 13 11 13 19 24 22 37 36 39 39 35 35 31 30 25 31 27 31 35 34 34
14 18 19 19 21 18 23 22 19 18 16 14 21 17 23 24 23 22 19 18 18 19 15 15 15 13 15 17 23 21 34 38 38 38 33 36 28 27 31 29 30 31 34 32
17 17 20 16 21 18 20 22 22 23 21 10 22 13 18 22 25 21 23 23 23 22 22 20 22 19 24 19 19 20 34 35 37 37 36 38 30 32 29 31 29 31 31 35
20 15 6 18 20 16 20 18 23 23 17 15 21 15 18 21 23 20 21 21 25 27 27 24 21 27 26 28 29 30 37 38 37 39 39 40 38 31 28 33 31 33 33 34
23 20 11 6 13 13 22 8 6 7 11 13 21 17 20 21 26 24 22 22 21 17 18 19 25 22 23 28 29 32 28 38 38 39 40 39 40 38 38 36 36 36 35 36
15 18 11 16 21 16 20 9 4 7 9 14 18 7 16 22 25 24 23 21 20 19 18 19 19 21 21 30 30 31 29 38 37 39 39 41 40 42 32 38 36 38 34 31
13 11 26 25 9 14 13 16 6 5 9 13 13 18 20 20 24 22 21 22 11 16 8 10 11 15 17 26 31 32 36 38 38 38 38 40 39 38 37 33 33 32 29 31
10 14 14 16 23 14 9 10 6 4 7 11 13 16 4 20 16 9 15 12 11 10 11 9 11 12 17 24 25 35 37 30 41 38 37 38 44 42 39 26 32 35 31 39
15 3 14 22 14 17 11 6 3 5 2 6 6 5 5 18 19 11 16 21 2 5 7 12 8 14 11 21 19 21 33 32 36 38 36 36 38 40 39 29 32 32 35 39
9 5 10 23 25 4 4 10 13 4 8 12 10 9 1 6 18 22 16 12 21 10 11 12 12 15 16 9 11 10 28 34 30 34 35 35 34 35 37 30 22 6 22 35
6 3 8 11 2 6 14 21 16 12 10 14 11 9 2 7 7 13 15 12 9 11 4 5 8 8 18 19 11 14 12 16 29 33 32 31 28 33 30 34 26 11 6 13
4 4 9 11 20 17 17 23 21 11 5 17 17 20 24 17 18 23 19 15 12 16 18 7 7 8 13 19 26 16 18 20 21 20 34 33 31 31 36 43 40 33 35 27
3 6 14 20 21 22 21 23 19 17 17 14 18 21 23 23 15 21 23 15 17 11 14 13 9 10 10 7 23 29 16 19 25 25 22 38 33 33 38 39 44 49 53 31
1 5 17 19 15 20 13 12 11 16 17 20 24 32 18 23 21 18 20 18 21 17 17 15 11 14 17 15 13 31 19 22 20 24 19 37 37 37 37 30 32 39 44 48
3 4 5 8 21 19 4 8 7 13 17 15 13 17 23 23 21 19 19 16 13 12 16 15 14 14 14 21 20 10 32 23 28 22 22 34 37 31 30 31 36 44 48 43
8 11 2 7 14 4 4 7 15 14 14 9 12 17 17 17 17 12 14 12 12 14 14 14 13 15 24 26 25 21 30 25 27 27 17 29 38 35 32 32 32 32 36 32
7 0 4 4 8 8 4 9 16 13 6 9 9 11 14 17 15 3 15 14 12 12 10 11 16 21 23 24 27 25 29 31 30 13 15 27 30 36 34 31 33 35 37 35
8 5 0 4 5 3 5 21 25 10 3 20 12 11 13 13 8 6 15 14 15 13 10 14 17 19 21 22 23 24 25 28 26 9 6 19 16 27 36 36 35 34 37 32
7 6 4 6 4 2 11 18 19 6 8 20 14 12 12 7 6 10 13 15 12 12 11 14 14 14 17 19 20 21 24 8 11 15 14 24 29 29 32 36 38 39 36 34
2 5 4 4 4 3 16 7 5 8 9 11 11 11 10 11 10 13 13 16 14 12 11 15 13 13 11 11 4 10 10 11 23 22 23 27 28 35 37 37 35 35 36 35
2 1 2 3 3 4 5 6 9 9 8 9 10 11 12 14 15 12 13 16 13 14 14 17 14 13 19 19 15 13 12 16 26 27 27 27 30 30 32 35 36 34 34 33
5 3 4 5 3 7 4 7 9 8 7 8 9 11 10 11 14 16 12 14 13 15 14 18 18 18 20 21 23 19 17 20 27 29 29 28 34 31 31 30 31 30 27 25
6 7 8 8 5 9 5 7 10 8 8 8 12 13 13 13 12 15 11 15 14 19 22 22 20 20 23 26 26 26 22 22 26 28 28 28 28 32 32 27 23 22 21 21
4 4 3 3 2 2 3 6 8 6 7 9 10 12 14 15 13 14 12 16 20 22 26 23 23 24 24 30 30 29 25 23 25 24 24 24 28 27 30 33 38 32 30 27
Wind_Direction
313 298 288 276 288 303 260 303 306 306 297 299 302 252 251 242 226 241 244 249 214 231 230 224 229 225 224 205 194 182 182 166 170 176 182 194 195 189 191 188 189 189 193 200
309 305 319 325 314 293 276 257 270 294 301 298 310 304 283 291 234 226 240 233 236 245 253 264 212 230 220 194 183 180 179 172 173 179 183 191 199 190 200 189 190 193 192 194
319 302 309 307 298 294 282 286 304 291 287 299 295 285 293 267 275 268 270 273 255 229 239 256 250 255 227 197 195 192 181 181 177 183 183 188 195 194 197 194 186 190 192 193
295 297 295 291 291 294 292 311 309 297 300 287 301 293 273 276 256 244 247 255 267 267 252 254 261 237 245 193 195 202 190 183 183 184 182 188 196 203 193 198 188 187 188 192
312 300 295 309 296 298 294 295 290 287 284 274 284 268 267 261 264 253 227 230 238 242 246 232 242 251 228 210 211 228 192 188 191 183 189 191 198 202 193 193 185 186 187 192
333 337 9 276 309 314 312 318 305 285 264 261 259 264 271 270 265 250 250 242 227 223 225 231 220 235 244 214 203 216 189 192 191 191 193 193 199 200 194 191 188 190 192 191
322 330 11 323 329 303 291 284 296 269 249 247 252 244 249 277 266 264 267 261 249 233 238 224 212 223 229 232 204 208 206 192 193 193 198 197 198 206 198 197 199 195 194 196
344 321 52 314 298 309 306 333 272 302 255 275 269 260 258 229 262 267 275 263 257 228 223 224 219 213 217 225 219 195 210 188 193 194 198 203 204 205 205 200 202 191 190 187
323 297 318 303 346 325 302 296 257 262 282 272 254 246 249 269 262 262 287 252 272 262 225 260 237 214 230 217 215 199 198 190 194 194 196 201 206 208 210 206 201 187 184 182
316 298 304 303 324 315 292 313 302 282 285 268 260 262 342 343 312 273 262 275 232 244 256 236 260 271 232 231 221 197 195 201 191 194 195 200 206 210 207 208 193 189 185 184
321 276 291 304 310 303 309 297 290 247 164 292 337 334 290 287 323 333 13 332 20 55 33 13 330 319 267 237 231 204 192 202 189 193 194 198 206 210 205 208 192 197 192 184
321 278 290 291 298 341 345 310 316 275 302 294 283 279 83 224 12 357 335 3 348 40 31 5 358 342 322 281 257 266 196 199 196 194 192 198 202 207 204 203 178 159 208 188
333 268 305 304 7 312 337 322 324 313 293 278 294 290 82 2 28 286 294 347 330 338 16 3 334 319 317 317 261 262 258 216 217 195 192 192 190 195 181 183 165 166 57 255
185 240 251 272 283 294 294 304 305 292 269 297 290 314 327 24 11 312 332 342 328 333 314 317 315 297 295 313 320 270 272 222 230 231 198 182 179 183 188 195 200 199 241 303
144 267 285 290 290 289 276 277 295 310 313 306 314 309 324 324 358 315 315 329 324 310 305 322 326 330 322 349 332 307 294 309 210 247 226 185 178 179 184 193 200 190 190 229
220 267 303 295 305 313 309 19 12 356 336 322 319 308 340 326 323 319 314 331 320 313 301 331 338 322 317 320 343 328 328 329 300 227 246 174 176 188 202 195 191 172 199 220
283 275 296 291 323 317 99 36 5 314 310 312 306 304 316 317 322 320 309 302 310 323 339 348 335 318 309 310 317 323 301 318 313 259 231 166 156 177 186 187 180 183 195 198
245 278 322 293 323 354 122 356 345 310 301 303 279 294 319 319 308 303 358 343 336 333 328 326 320 305 299 302 307 313 298 303 305 284 221 173 166 166 168 171 171 164 166 165
236 13 288 306 309 264 33 350 337 334 341 3 316 313 317 318 319 30 346 340 330 307 302 301 290 284 290 288 291 294 294 293 291 305 145 168 190 148 153 142 133 129 124 123
95 132 176 301 304 330 346 339 329 315 220 359 345 331 332 326 343 331 330 336 325 317 306 300 295 290 283 282 281 277 276 281 289 32 105 156 165 131 124 127 122 122 121 120
355 346 292 307 285 102 358 346 323 18 321 330 353 356 352 346 324 316 326 328 329 330 335 328 309 294 286 283 270 258 259 195 106 112 98 108 128 107 112 116 121 123 120 120
22 331 344 316 278 320 20 353 28 312 314 353 3 359 341 337 339 338 343 345 348 348 354 352 334 313 339 350 120 85 74 110 111 106 100 97 109 118 118 115 115 117 122 120
331 41 268 226 288 20 27 340 318 331 356 13 1 349 346 2 351 344 1 353 9 2 10 4 358 10 30 34 60 77 80 104 106 103 96 95 97 103 112 115 118 119 126 128
325 37 266 283 157 341 46 0 344 9 19 16 346 347 4 16 0 357 13 8 25 16 19 16 21 29 30 40 49 55 80 100 103 101 101 101 101 96 103 108 116 124 127 134
280 333 303 286 39 328 79 5 345 12 11 0 347 0 0 355 18 8 26 17 23 27 22 28 30 32 35 39 45 55 66 88 95 96 98 97 92 93 95 93 104 120 130 137
196 326 321 295 107 241 294 342 348 18 14 7 4 353 354 350 8 29 23 31 23 26 31 33 36 38 39 45 42 48 64 74 85 89 90 95 96 93 94 93 87 97 112 117